This demonstration page uses our WeatherBlox Daily Observations layout. Learn more.

Left ArrowRight Arrow

34.74481, -87.66753

Hourly Observations for May 21, 2021

Temp ( °F °C ) Dew Point ( °F °C ) Humidity (%) Winds ( mph kmh ) Pressure ( in mb ) Visibility ( mi km ) Precip ( " mm )
12:53 am 00:53 Clear 67 19.4 55 12.8 66 66 ESE 6 9 30.26 1025 10 16 0.00 0.00
1:53 am 01:53 Clear 66 18.9 55 12.8 68 68 ESE 6 9 30.26 1025 10 16 0.00 0.00
2:53 am 02:53 Clear 66 18.9 55 12.8 68 68 ESE 7 11 30.27 1025 10 16 0.00 0.00
3:53 am 03:53 Clear 66 18.9 54 12.2 65 65 ESE 6 9 30.28 1025 10 16 0.00 0.00
4:53 am 04:53 Clear 64 17.8 54 12.2 70 70 E 5 7 30.29 1026 10 16 0.00 0.00
5:53 am 05:53 Sunny 63 17.2 54 12.2 73 73 E 5 7 30.31 1027 10 16 0.00 0.00
6:53 am 06:53 Sunny 67 19.4 55 12.8 66 66 ESE 8 13 30.33 1027 10 16 0.00 0.00
7:53 am 07:53 Sunny 71 21.7 56 13.3 59 59 SE 9 15 30.35 1028 10 16 0.00 0.00
8:53 am 08:53 Sunny 74 23.3 54 12.2 50 50 SSE 18 30 30.36 1028 10 16 0.00 0.00
9:53 am 09:53 Sunny 76 24.4 53 11.7 45 45 SSE 16 26 30.37 1028 10 16 0.00 0.00
11:53 am 11:53 undefined 82 27.8 55 12.8 40 40 undefined N/A 30.37 1029 N/A 0.00 0.00
12:53 pm 12:53 Sunny 84 28.9 55 12.8 37 37 SE 14 22 30.35 1028 10 16 0.00 0.00
1:53 pm 13:53 Sunny 85 29.4 54 12.2 35 35 SSE 15 24 30.33 1027 10 16 0.00 0.00
2:53 pm 14:53 Sunny 86 30 55 12.8 35 35 S 13 20 30.31 1027 10 16 0.00 0.00
3:53 pm 15:53 Sunny 85 29.4 54 12.2 35 35 SE 9 15 30.30 1026 10 16 0.00 0.00
4:53 pm 16:53 Sunny 86 30 54 12.2 33 33 SSE 10 17 30.30 1026 10 16 0.00 0.00
5:53 pm 17:53 Sunny 84 28.9 55 12.8 37 37 SSE 9 15 30.30 1026 10 16 0.00 0.00
6:53 pm 18:53 Sunny 82 27.8 57 13.9 42 42 SE 6 9 30.31 1026 10 16 0.00 0.00
7:53 pm 19:53 Clear 76 24.4 58 14.4 54 54 E 5 7 30.31 1026 10 16 0.00 0.00
8:53 pm 20:53 Clear 72 22.2 59 15 64 64 ESE 3 6 30.32 1027 10 16 0.00 0.00
9:53 pm 21:53 Clear 72 22.2 57 13.9 59 59 ESE 3 6 30.34 1027 10 16 0.00 0.00
10:53 pm 22:53 Clear 69 20.6 58 14.4 68 68 ESE 3 6 30.35 1028 10 16 0.00 0.00
11:53 pm 23:53 Clear 68 20 57 13.9 68 68 Calm 30.35 1028 10 16 0.00 0.00

Powered by AerisWeather